Weather in Boise

United States     43°37′09″N   116°12′52″W
temp.,
°C
wind,
m/s
gust,
m/s
humid.,
%
clouds,
%
prec.,
mm/h
press.,
hPa
HPBL,
m
16 may, sun
sun1600:00+16ese224862 0.0 100820
03:00+13wnw11551 0.0 100930
06:00+11n01605 0.0 101023
09:00+15wnw22510 0.0 1011258
12:00+21nw43370 0.0 1010696
15:00+26nw43250 0.0 10071892
18:00+26nw77230 0.0 10042407
21:00+21nw463239 0.0 1005119
17 may, mon
mon1700:00+18n113361 0.0 100611
03:00+16se33410 0.0 100740
06:00+13sse35640 0.0 100996
09:00+19sse45480 0.0 1009406
12:00+24s33330 0.0 10081191
15:00+27nw44240 0.0 10062053
18:00+27nw46230 0.0 10042264
21:00+22e22294 0.0 100412
18 may, tue
tue1800:00+18wnw611403 0.0 1007234
03:00+14nnw6135899 0.0 1010335
06:00+13nw61156100 0.0 1012350
09:00+15wnw710391 0.0 1014950
12:00+19wnw78280 0.0 10131661
15:00+21nw69242 0.0 10112305
18:00+22nw79194 0.0 10082156
21:00+16nnw583434 0.0 1008380
19 may, wed
wed1900:00+11wnw484941 0.0 1010173
03:00+8wnw58435 0.0 1011238
06:00+6nw4853100 0.0 1011230
09:00+9nw6847100 0.0 1010484
12:00+14nw8838100 0.0 1008899
15:00+17nw88355 0.0 10051380
18:00+15nw10124310 0.0 10051475
21:00+12nw711462 0.0 1006581
20 may, thu
thu2000:00+7wnw5970100 0.0 1009273
03:00+6wnw586566 0.0 1010281
06:00+4nw5977100 0.0 1010247
09:00+7nw676192 0.0 1010532
12:00+12nw7744100 0.0 10061053
15:00+17nw7632100 0.0 10021662
18:00+15nnw8837100 0.0 10021675
21:00+10n4875100 1.3 1004558